Gainesville, GA

12:09 PM EDT on July 21, 2017 (GMT -0400)
Gilmer Memorial

Weather History for KGVL - February, 2013

Change the Weather History Date:

Sunday, February 17, 2013

  Actual Average Record
Temperature  
Mean Temperature 33 °F 46 °F  
Max Temperature 42 °F 55 °F 76 °F (1976)
Min Temperature 24 °F 36 °F 1 °F (1958)
Degree Days  
Heating Degree Days 32 19  
Month to date heating degree days 352  
Since 1 July heating degree days 2270  
Moisture  
Dew Point 8 °F    
Average Humidity 35    
Maximum Humidity 51    
Minimum Humidity 22    
Precipitation  
Precipitation 0.00 in 0.18 in 2.40 in (1942)
Month to date precipitation 2.75  
Year to date precipitation 7.78  
Snow  
Snow 0.00 in - - ()
Month to date snowfall  
Since 1 July snowfall  
Snow Depth -    
Sea Level Pressure  
Sea Level Pressure 30.21 in    
Wind  
Wind Speed 11 mph (WNW)    
Max Wind Speed 17 mph    
Max Gust Speed 25 mph    
Visibility 10 miles    
Events      
T = Trace of Precipitation, MM = Missing Value Source: NWS Daily Summary

Daily Weather History Graph

Daily Weather History Graph

Search for Another Location

Airport or City:

Trip Planner

Search our weather history database for the weather conditions in past years. The results will help you decide how hot, cold, wet, or windy it might be!

Date:

Astronomy

Feb. 17, 2013 Rise Set
Actual Time 7:17 AM EST 6:21 PM EST
Civil Twilight 6:52 AM EST 6:46 PM EST
Nautical Twilight 6:23 AM EST 7:16 PM EST
Astronomical Twilight 5:53 AM EST 7:45 PM EST
Moon 11:30 AM EST (2/17) 12:55 AM EST (2/17)
Length of Visible Light 11h 54m
Length of Day
11h 03m
Waxing Crescent, 49% of the Moon is Illuminated
Feb 17
Waxing Crescent
Feb 17
First Quarter
Feb 25
Full
Mar 4
Last Quarter
Mar 11
New

Hourly Weather History & Observations

Time (EST) Temp. Windchill Dew Point Humidity Pressure Visibility Wind Dir Wind Speed Gust Speed Precip Events Conditions
12:53 AM 28.0 °F 17.5 °F 10.9 °F 49% 30.12 in 10.0 mi WNW 12.7 mph - N/A   Clear
1:53 AM 27.0 °F 15.2 °F 5.0 °F 39% 30.13 in 10.0 mi NW 15.0 mph - N/A   Clear
2:53 AM 26.1 °F 15.6 °F 5.0 °F 41% 30.14 in 10.0 mi NW 11.5 mph - N/A   Clear
3:53 AM 26.1 °F 17.6 °F 3.9 °F 39% 30.15 in 10.0 mi WNW 8.1 mph - N/A   Clear
4:53 AM 26.1 °F 16.2 °F 5.0 °F 41% 30.17 in 10.0 mi WNW 10.4 mph - N/A   Clear
5:53 AM 25.0 °F 15.5 °F 7.0 °F 46% 30.18 in 10.0 mi WNW 9.2 mph - N/A   Clear
6:53 AM 24.1 °F 18.2 °F 8.1 °F 51% 30.20 in 10.0 mi West 4.6 mph - N/A   Clear
8:53 AM 28.0 °F 20.0 °F 9.0 °F 45% 30.24 in 10.0 mi West 8.1 mph - N/A   Clear
9:53 AM 30.9 °F 21.7 °F 8.1 °F 38% 30.25 in 10.0 mi West 11.5 mph - N/A   Clear
10:53 AM 34.0 °F 26.0 °F 7.0 °F 32% 30.25 in 10.0 mi WNW 10.4 mph - N/A   Clear
11:53 AM 37.0 °F 28.1 °F 7.0 °F 29% 30.26 in 10.0 mi West 15.0 mph 21.9 mph N/A   Clear
12:53 PM 39.9 °F 32.5 °F 8.1 °F 27% 30.24 in 10.0 mi WNW 12.7 mph 20.7 mph N/A   Clear
1:53 PM 42.1 °F 33.9 °F 5.0 °F 22% 30.22 in 10.0 mi WNW 17.3 mph 25.3 mph N/A   Clear
2:53 PM 42.1 °F 34.9 °F 6.1 °F 23% 30.20 in 10.0 mi West 13.8 mph 18.4 mph N/A   Clear
3:53 PM 42.1 °F 36.1 °F 7.0 °F 24% 30.20 in 10.0 mi West 10.4 mph 24.2 mph N/A   Clear
4:53 PM 42.1 °F 35.2 °F 9.0 °F 26% 30.20 in 10.0 mi WNW 12.7 mph 21.9 mph N/A   Clear
5:21 PM 42.8 °F 35.8 °F 10.4 °F 27% 30.19 in 10.0 mi West 13.8 mph 20.7 mph N/A   Clear
5:53 PM 41.0 °F 35.2 °F 10.0 °F 28% 30.23 in 10.0 mi West 9.2 mph - N/A   Clear
6:53 PM 39.0 °F 35.7 °F 10.9 °F 32% 30.25 in 10.0 mi West 4.6 mph - N/A   Clear
7:53 PM 37.0 °F 34.5 °F 12.0 °F 36% 30.26 in 10.0 mi West 3.5 mph - N/A   Clear
8:53 PM 36.0 °F - 12.0 °F 37% 30.27 in 10.0 mi Calm Calm - N/A   Clear
9:53 PM 34.0 °F 31.0 °F 12.9 °F 42% 30.29 in 10.0 mi SW 3.5 mph - N/A   Clear
10:53 PM 35.1 °F - 14.0 °F 42% 30.29 in 10.0 mi Calm Calm - N/A   Clear